パンスターズ彗星

500P/PanSTARRS (2018)

English version
Home page
Updated on June 14, 2025

---------------------------------------------------------------------

・ プロフィール

符号 500P/2019 A8
発見日 2019年1月11日
発見光度 21.5等
発見者 Pan-STARRS 1 telescope (Haleakala)

・ 軌道要素

                    Epoch = 2018 Aug. 30.0 TT
     T = 2018 Aug. 30.74303 TT        Peri. =  20.40194
     e = 0.4274762                    Node  = 127.89504 2000.0
     q = 1.8729519 AU                 Incl. =   2.96678
       a =  3.2713956 AU   n = 0.16657295   P =   5.92 years

・ 光度変化

        m1 = 15.5 + 5 logΔ + 10.0 log r

---------------------------------------------------------------------

軌道要素は、CBET 5516に掲載されたものです。
光度グラフはComet for Windowsで作成したものです。

---------------------------------------------------------------------

Copyright(C) Seiichi Yoshida (comet@aerith.net). All rights reserved.